Hutchinson, KS

3:33 AM CDT on September 20, 2019 (GMT -0500)
Hutchinson Municipal

Weather History for KHUT - July, 2019

Change the Weather History Date:

Tuesday, July 23, 2019

  Actual Average Record
Temperature  
Mean Temperature 70 °F -  
Max Temperature 86 °F 90 °F 108 °F (2011)
Min Temperature 54 °F 66 °F 54 °F (2006)
Cooling Degree Days 5    
Growing Degree Days 20 (Base 50)    
Moisture  
Dew Point 53 °F    
Average Humidity 57    
Maximum Humidity 90    
Minimum Humidity 31    
Precipitation  
Precipitation 0.00 in - - ()
Sea Level Pressure  
Sea Level Pressure 30.20 in    
Wind  
Wind Speed 5 mph (NNE)    
Max Wind Speed 10 mph    
Max Gust Speed 17 mph    
Visibility 10 miles    
Events      
Averages and records for this station are not official NWS values.
T = Trace of Precipitation, MM = Missing Value Source: NWS Daily Summary

Daily Weather History Graph

Daily Weather History Graph

Search for Another Location

Airport or City:

Astronomy

Jul. 23, 2019 Rise Set
Actual Time 6:26 AM CDT 8:48 PM CDT
Civil Twilight 5:56 AM CDT 9:18 PM CDT
Nautical Twilight 5:19 AM CDT 9:55 PM CDT
Astronomical Twilight 4:38 AM CDT 10:36 PM CDT
Moon 12:15 AM CDT (7/23) 12:36 PM CDT (7/23)
Length of Visible Light 15h 22m
Length of Day
14h 22m
Waning Gibbous, 63% of the Moon is Illuminated
Jul 23
Waning Gibbous
Jul 24
Last Quarter
Jul 31
New
Aug 7
First Quarter
Aug 15
Full

Hourly Weather History & Observations

Time (CDT) Temp. Heat Index Dew Point Humidity Pressure Visibility Wind Dir Wind Speed Gust Speed Precip Events Conditions
12:52 AM 62.1 °F - 54.0 °F 75% 30.22 in 10.0 mi North 4.6 mph - N/A   Clear
1:52 AM 57.9 °F - 53.1 °F 84% 30.23 in 10.0 mi North 4.6 mph - N/A   Clear
2:52 AM 61.0 °F - 53.1 °F 75% 30.23 in 10.0 mi North 4.6 mph - N/A   Clear
3:52 AM 59.0 °F - 53.1 °F 81% 30.22 in 10.0 mi Calm Calm - N/A   Clear
4:52 AM 54.0 °F - 51.1 °F 90% 30.22 in 10.0 mi North 3.5 mph - N/A   Clear
5:52 AM 55.9 °F - 52.0 °F 87% 30.23 in 10.0 mi Calm Calm - N/A   Clear
6:52 AM 55.9 °F - 53.1 °F 90% 30.25 in 10.0 mi North 3.5 mph - N/A   Clear
7:52 AM 64.0 °F - 57.0 °F 78% 30.26 in 10.0 mi North 5.8 mph - N/A   Clear
8:52 AM 69.1 °F - 57.9 °F 68% 30.27 in 10.0 mi Variable 3.5 mph - N/A   Clear
9:52 AM 73.9 °F - 54.0 °F 50% 30.27 in 10.0 mi North 4.6 mph - N/A   Clear
10:52 AM 75.0 °F - 55.0 °F 50% 30.26 in 10.0 mi Variable 6.9 mph - N/A   Partly Cloudy
11:52 AM 79.0 °F - 54.0 °F 42% 30.24 in 10.0 mi North 3.5 mph - N/A   Clear
12:52 PM 80.1 °F 79.9 °F 53.1 °F 39% 30.22 in 10.0 mi East 8.1 mph 17.3 mph N/A   Clear
1:52 PM 82.9 °F - 52.0 °F 34% 30.20 in 10.0 mi NE 9.2 mph - N/A   Clear
2:52 PM 82.9 °F - 50.0 °F 32% 30.18 in 10.0 mi North 5.8 mph - N/A   Clear
3:52 PM 84.0 °F - 51.1 °F 32% 30.16 in 10.0 mi ENE 8.1 mph - N/A   Clear
4:52 PM 86.0 °F - 52.0 °F 31% 30.15 in 10.0 mi ENE 10.4 mph - N/A   Clear
5:52 PM 84.0 °F - 51.1 °F 32% 30.14 in 10.0 mi NE 5.8 mph - N/A   Clear
6:52 PM 82.0 °F - 50.0 °F 33% 30.13 in 10.0 mi NE 6.9 mph - N/A   Clear
7:52 PM 79.0 °F - 51.1 °F 38% 30.12 in 10.0 mi NE 4.6 mph - N/A   Clear
8:52 PM 73.0 °F - 52.0 °F 48% 30.14 in 10.0 mi NE 3.5 mph - N/A   Clear
9:52 PM 69.1 °F - 51.1 °F 53% 30.14 in 10.0 mi NNE 5.8 mph - N/A   Clear
10:52 PM 66.0 °F - 52.0 °F 60% 30.16 in 10.0 mi NE 4.6 mph - N/A   Clear
11:52 PM 64.0 °F - 52.0 °F 65% 30.16 in 10.0 mi ENE 5.8 mph - N/A   Clear